Погода в Азаматово

Россия / Удмуртская Республика     56°11′29″N   52°37′25″E
темп.,
°C
ветер,
м/с
пор.,
м/с
влажн.,
%
обл.,
%
осадки,
мм/ч
давл.,
гПа
погр.,
м
5 августа, чт
чт501:00+17сз4109722 2.9 1011307
04:00+15сз511960 2.9 1011282
07:00+18ссз48875 0.0 1012311
10:00+22сз45670 0.3 1012777
13:00+24ссз664764 0.4 10121925
16:00+23сз5646100 0.4 10131372
19:00+21ссз485447 0.0 1014415
22:00+17ссз410606 0.0 1014211
6 августа, пт
пт601:00+14ссз367234 0.0 101587
04:00+13ссз33795 0.0 101533
07:00+16с36691 0.0 1016218
10:00+21с45403 0.0 10171311
13:00+23с45345 0.0 10171857
16:00+23ссз4534100 0.0 10161957
19:00+20с3449100 0.0 101699
22:00+15с3361100 0.0 101724
7 августа, сб
сб701:00+14с226691 0.0 101719
04:00+13с226899 0.0 101814
07:00+16ссв1259100 0.0 1019140
10:00+16сз1262100 0.0 1019121
13:00+20сз444679 0.0 10191006
16:00+21сз334533 0.0 10181082
19:00+20с235328 0.0 101875
22:00+17ссз2257100 0.0 101918
8 августа, вс
вс801:00+15с2267100 0.0 101911
04:00+14св11735 0.0 102010
07:00+16всв236448 0.0 1021147
10:00+20в115022 0.0 1021457
13:00+22ссз114357 0.0 1020870
16:00+25с234141 0.0 1020986
19:00+23ссв235371 0.0 102058
22:00+18всв235491 0.0 102037
9 августа, пн
пн901:00+16вюв336186 0.0 102037
04:00+15юв226758 0.0 102113
07:00+17юв2560100 0.0 1021165
10:00+22юв4547100 0.0 1020423
13:00+26ююв333791 0.0 1020807
16:00+28ююв333464 0.0 10181142
19:00+25юв3444100 0.0 101865
22:00+21юв344934 0.0 101746